SCP
0 -0 -0 0 0 -0 -0 -0 0 0 0 0 0 0 0 -0 0 0 0 -0 -0 0 0 0 0 0 0 0 0 0 0 0 0 0 0 0 0 0
0 0 0 0 0 0 0 -0 0 0 0 0 0 0 0 0 0 0 0 0 -0 0 0 0 0 0 0 0 0 0 0 0 0 0 0 0 0 0
0 0 0 0 0 0 0 0 0 0 0 0 0 0 0 0 0 0 0 0 0 0 0 0 0 0 0 0 0 0 0 0 0 0 0 0 0 0
0 0 0 0 0 0 0 0 0 0 0 0 0 0 0 0 0 0 0 0 0 0 0 0 0 0 0 0 0 0 0 0 0 0 0 0 0 0
0 0 0 0 0 0 0 0 0 0 0 0 0 0 0 0 0 0 0 0 0 0 0 0 0 0 0 0 0 0 0 0 0 0 0 0 0 0
0 0 0 0 0 0 0 0 0 0 0 0 0 0 0 0 0 0 0 0 0 0 0 0 0 0 0 0 0 0 0 0 0 0 0 0 0 0
0 0 0 0 0 0 0 0 0 0 0 0 0 0 0 0 0 0 0 0 0 0 0 0 0 0 0 0 0 0 0 0 0 0 0 0 0 0
0 0 0 0 0 0 0 0 0 0 0 0 0 0 0 0 0 0 0 0 0 0 0 0 0 0 0 0 0 0 0 0 0 0 0 0 0 0
0 0 0 0 0 0 0 0 0 0 0 0 0 0 0 0 0 0 0 0 0 0 0 0 0 0 0 0 0 0 0 0 0 0 0 0 0 0
0 0 0 0 0 0 0 0 0 0 0 0 0 0 0 0 0 0 0 0 0 0 0 0 0 0 0 0 0 0 0 0 0 0 0 0 0 0
0 0 0 0 0 0 0 0 0 0 0 0 0 0 0 0 0 0 0 0 0 0 0 0 0 0 0 0 0 0 0 0 0 0 0 0 0 0
0 0 0 0 0 0 0 0 0 0 0 0 0 0 0 0 0 0 0 0 0 0 0 0 0 0 0 0 0 0 0 0 0 0 0 0 0 0
0 0 0 0 0 0 0 0 0 0 0 0 0 0 0 0 0 0 0 0 0 0 0 0 0 0 0 0 0 0 0 0 0 0 0 0 0 0
0 0 0 0 0 0 0 0 0 0 0 0 0 0 0 0 0 0 0 0 0 0 0 0 0 0 0 0 0 0 0 0 0 0 0 0 0 0
0 0 0 0 0 0 0 0 0 0 0 0 0 0 0 0 0 0 0 0 0 0 0 0 0 0 0 0 0 0 0 0 0 0 0 0 0 0
0 0 0 0 0 0 0 0 0 0 0 0 0 0 0 0 0 0 0 0 0 0 0 0 0 0 0 0 0 0 0 0 0 0 0 0 0 0
0 0 0 0 0 0 0 0 0 0 0 0 0 0 0 0 0 0 0 0 0 0 0 0 0 0 0 0 0 0 0 0 0 0 0 0 0 -0
0 0 0 0 0 0 0 0 0 0 0 0 0 0 0 0 0 0 0 0 0 0 0 0 0 0 0 0 0 0 0 0 0 0 0 0 -0 -0
0 0 0 0 0 0 0 0 0 0 0 0 0 0 0 0 0 0 0 0 0 0 0 0 0 0 0 0 0 0 0 0 0 0 0 -0 -0 -0
0 0 0 0 0 0 0 0 0 0 0 0 0 0 0 0 0 0 0 0 0 0 0 0 0 0 0 0 0 0 0 0 0 0 -0 0 -0 0
0 0 0 0 0 0 0 0 0 0 0 0 0 0 0 0 0 0 0 0 0 0 0 0 0 0 0 0 0 0 0 -0 -0 0 0 0 0 0
0 0 0 0 0 0 0 0 0 0 0 0 0 0 0 0 0 0 0 0 0 0 0 0 0 0 0 0 0 0 0 0 0 -0 -0 0 0 0
0 0 0 0 0 0 0 0 0 0 0 0 0 0 0 0 0 0 0 0 0 0 0 0 0 0 0 0 0 0 0 0 -0 -0 -0 -0 0 0
Wind_Speed_500mb
21 19 18 13 14 15 13 12 12 16 24 21 21 26 28 27 36 36 38 35 29 30 29 27 24 24 24 23 24 25 26 23 24 27 27 23 20 19
24 22 20 20 20 19 25 24 21 22 28 23 18 20 18 24 32 41 42 41 39 32 29 29 27 28 26 27 26 27 28 29 28 30 32 31 24 22
26 28 28 28 29 28 24 25 25 25 32 27 22 20 24 26 32 31 41 42 41 40 30 31 30 30 29 30 29 29 31 34 32 33 35 31 29 24
26 29 32 31 29 27 30 31 30 29 32 34 34 31 27 26 28 29 28 34 34 34 32 36 37 37 35 34 34 33 34 37 37 30 33 31 31 29
35 36 37 38 38 38 36 35 31 29 32 37 35 32 32 32 33 30 29 36 33 30 36 40 40 37 36 39 39 38 36 38 39 33 33 32 35 36
37 37 38 38 37 38 38 36 36 36 36 36 36 35 32 30 31 34 38 36 35 34 36 40 41 42 42 41 42 41 41 40 39 36 39 41 44 42
38 38 36 36 39 36 41 43 42 43 41 41 41 38 34 40 43 38 35 36 37 42 46 44 44 43 43 43 41 43 45 43 37 35 41 45 46 46
41 39 40 40 42 40 44 48 49 47 44 41 42 45 42 39 37 37 38 41 47 46 49 47 49 54 50 49 47 44 44 43 44 42 42 47 52 50
43 46 44 44 45 46 47 49 48 49 50 50 52 53 49 45 41 42 46 52 56 53 48 51 47 46 47 45 49 47 43 44 47 46 48 57 58 49
43 44 44 43 42 45 50 53 52 51 52 51 53 51 47 43 41 42 44 50 55 58 56 61 59 59 56 51 45 40 36 42 44 48 58 55 44 44
41 44 45 43 40 41 46 51 53 59 58 59 59 59 57 54 50 50 53 53 58 60 55 55 64 65 63 56 43 35 42 48 51 54 51 45 40 42
34 36 36 38 40 41 42 44 50 49 50 55 57 58 57 57 54 57 54 56 58 61 55 51 58 63 67 72 47 70 55 53 47 52 50 47 44 40
31 32 33 33 33 40 43 46 46 44 42 47 46 50 54 53 52 54 54 56 56 58 55 58 61 48 52 45 42 57 65 53 53 41 41 35 35 45
37 34 34 35 38 37 35 35 38 39 39 38 42 44 44 42 39 42 50 53 54 55 54 47 42 40 34 41 56 53 53 49 49 45 41 51 51 33
39 40 42 44 41 38 38 37 38 37 39 41 38 38 38 37 37 38 37 35 36 36 36 38 40 38 34 42 62 51 51 45 42 45 55 62 48 48
45 46 52 54 51 51 51 47 45 42 40 35 36 32 29 29 29 30 33 34 35 36 33 35 29 30 43 39 36 40 46 46 61 53 58 48 47 61
44 51 54 58 61 60 57 55 53 47 43 35 34 37 32 34 35 36 42 36 34 30 30 30 31 34 36 31 26 28 39 50 55 61 49 48 57 58
46 47 46 45 48 48 49 45 43 43 36 33 36 38 37 37 40 43 35 30 28 28 28 28 28 27 26 19 19 20 39 52 39 55 50 53 57 59
44 37 34 33 32 31 26 20 20 21 27 29 34 35 39 43 39 35 29 29 30 29 28 28 26 23 21 23 16 20 32 44 54 57 56 54 48 46
40 31 28 30 28 25 23 24 25 27 33 36 39 41 40 36 33 32 28 26 28 28 25 23 20 20 23 30 35 31 31 51 59 60 54 47 42 38
32 25 27 29 29 29 31 33 34 34 35 37 37 34 31 27 27 25 23 23 24 24 23 18 15 14 18 26 51 44 37 48 41 46 54 49 45 39
28 25 28 32 33 34 34 30 29 30 29 27 25 24 23 22 20 20 21 23 24 25 31 34 29 22 29 52 53 46 48 50 36 33 35 34 43 31
27 27 28 30 30 29 29 30 27 24 22 25 23 19 19 18 17 19 21 24 31 44 43 41 35 28 30 39 40 40 44 47 44 43 42 34 28 23
Wind_Direction_500mb
235 232 227 233 233 249 265 291 295 268 279 274 256 260 257 249 234 248 254 251 252 261 258 253 256 261 257 256 254 250 238 238 240 242 238 246 259 271
242 241 250 248 250 246 242 259 273 276 276 274 277 271 273 258 241 251 255 245 245 255 252 251 254 259 261 259 258 254 247 240 245 242 238 249 260 271
253 250 252 255 255 258 256 258 265 277 273 274 266 262 270 265 258 266 253 242 244 249 254 253 260 262 262 261 261 259 252 245 247 249 237 245 260 273
256 260 258 258 261 258 257 261 268 277 272 271 273 277 284 253 269 281 257 245 252 253 258 256 262 267 263 263 260 258 254 249 249 252 239 242 261 270
266 266 266 260 260 260 261 264 259 266 275 273 276 279 274 262 271 280 272 256 263 259 259 258 261 262 260 265 262 258 256 251 250 246 238 247 258 265
267 267 266 259 263 262 260 258 262 267 271 275 277 282 274 261 261 272 274 265 258 262 267 262 266 264 262 262 262 259 257 253 250 246 243 243 250 260
264 261 262 260 260 263 257 257 261 265 267 269 270 273 276 266 268 277 269 268 263 262 264 258 263 269 267 268 268 259 254 251 250 251 253 249 249 249
263 261 264 264 261 262 260 263 264 265 264 264 262 266 271 272 272 270 269 266 266 270 275 268 271 264 266 265 269 263 256 248 244 246 250 249 243 239
267 269 269 268 267 267 266 266 264 263 259 264 267 267 270 269 272 271 269 272 274 280 277 275 272 265 267 268 267 268 258 247 245 245 249 245 237 229
265 270 273 275 270 268 268 263 260 259 260 263 263 267 268 271 274 273 271 271 269 271 271 269 273 271 271 273 268 262 258 250 248 249 247 233 222 219
265 266 269 272 274 273 273 271 266 260 258 261 263 264 265 264 264 266 268 270 268 269 273 275 275 274 273 269 266 270 253 249 249 247 238 219 219 215
267 267 268 272 277 278 276 273 272 274 269 263 262 263 264 263 260 260 262 266 268 272 276 274 279 275 268 262 234 255 258 251 256 248 239 223 213 229
268 267 271 274 280 283 276 273 275 277 276 271 270 267 259 256 259 258 259 262 265 268 275 280 278 273 271 249 263 257 243 239 242 225 217 220 225 218
275 271 266 273 283 285 283 278 275 275 277 277 271 271 273 266 259 260 258 256 258 265 272 271 271 276 269 261 262 246 229 228 222 214 203 208 202 216
267 271 273 279 277 280 282 282 282 279 274 273 275 276 277 274 266 266 268 265 260 261 256 260 268 274 272 270 259 234 214 208 210 200 193 199 209 192
274 272 274 276 274 277 279 277 279 278 269 262 272 276 279 282 282 286 287 281 276 268 263 275 273 261 261 268 265 255 226 195 191 196 198 206 198 182
280 277 279 280 279 278 277 275 271 267 260 253 261 266 273 277 281 285 286 276 270 266 265 258 257 252 251 252 253 244 220 200 192 195 201 191 183 182
294 288 287 288 288 286 282 278 266 256 247 240 258 269 272 276 279 284 274 262 257 254 253 257 249 236 230 209 215 224 202 197 194 191 186 180 181 184
303 288 290 300 299 299 296 294 275 253 243 258 263 266 275 282 280 273 256 251 246 242 243 234 231 224 225 192 187 177 189 184 171 172 174 177 179 183
306 285 285 293 291 289 283 276 269 263 260 264 267 270 272 269 266 262 246 248 239 231 217 206 209 218 226 195 165 164 166 166 168 167 168 174 172 179
304 284 290 287 284 282 280 279 275 272 269 267 265 264 261 259 253 240 232 238 226 205 188 172 165 174 192 179 144 146 160 174 170 168 164 169 176 187
300 288 288 283 281 280 279 277 275 277 272 268 263 257 250 241 233 229 217 207 191 173 151 133 120 129 149 157 149 151 158 166 169 176 181 187 188 198
302 294 287 284 282 281 282 279 274 270 266 272 263 244 232 224 204 192 188 178 163 147 137 128 123 129 145 157 152 151 157 166 175 181 187 195 189 204
Wind_Speed_850mb
21 19 18 13 14 15 13 12 12 16 24 21 21 26 28 27 36 36 38 35 29 30 29 27 24 24 24 23 24 25 26 23 24 27 27 23 20 19
24 22 20 20 20 19 25 24 21 22 28 23 18 20 18 24 32 41 42 41 39 32 29 29 27 28 26 27 26 27 28 29 28 30 32 31 24 22
26 28 28 28 29 28 24 25 25 25 32 27 22 20 24 26 32 31 41 42 41 40 30 31 30 30 29 30 29 29 31 34 32 33 35 31 29 24
26 29 32 31 29 27 30 31 30 29 32 34 34 31 27 26 28 29 28 34 34 34 32 36 37 37 35 34 34 33 34 37 37 30 33 31 31 29
35 36 37 38 38 38 36 35 31 29 32 37 35 32 32 32 33 30 29 36 33 30 36 40 40 37 36 39 39 38 36 38 39 33 33 32 35 36
37 37 38 38 37 38 38 36 36 36 36 36 36 35 32 30 31 34 38 36 35 34 36 40 41 42 42 41 42 41 41 40 39 36 39 41 44 42
38 38 36 36 39 36 41 43 42 43 41 41 41 38 34 40 43 38 35 36 37 42 46 44 44 43 43 43 41 43 45 43 37 35 41 45 46 46
41 39 40 40 42 40 44 48 49 47 44 41 42 45 42 39 37 37 38 41 47 46 49 47 49 54 50 49 47 44 44 43 44 42 42 47 52 50
43 46 44 44 45 46 47 49 48 49 50 50 52 53 49 45 41 42 46 52 56 53 48 51 47 46 47 45 49 47 43 44 47 46 48 57 58 49
43 44 44 43 42 45 50 53 52 51 52 51 53 51 47 43 41 42 44 50 55 58 56 61 59 59 56 51 45 40 36 42 44 48 58 55 44 44
41 44 45 43 40 41 46 51 53 59 58 59 59 59 57 54 50 50 53 53 58 60 55 55 64 65 63 56 43 35 42 48 51 54 51 45 40 42
34 36 36 38 40 41 42 44 50 49 50 55 57 58 57 57 54 57 54 56 58 61 55 51 58 63 67 72 47 70 55 53 47 52 50 47 44 40
31 32 33 33 33 40 43 46 46 44 42 47 46 50 54 53 52 54 54 56 56 58 55 58 61 48 52 45 42 57 65 53 53 41 41 35 35 45
37 34 34 35 38 37 35 35 38 39 39 38 42 44 44 42 39 42 50 53 54 55 54 47 42 40 34 41 56 53 53 49 49 45 41 51 51 33
39 40 42 44 41 38 38 37 38 37 39 41 38 38 38 37 37 38 37 35 36 36 36 38 40 38 34 42 62 51 51 45 42 45 55 62 48 48
45 46 52 54 51 51 51 47 45 42 40 35 36 32 29 29 29 30 33 34 35 36 33 35 29 30 43 39 36 40 46 46 61 53 58 48 47 61
44 51 54 58 61 60 57 55 53 47 43 35 34 37 32 34 35 36 42 36 34 30 30 30 31 34 36 31 26 28 39 50 55 61 49 48 57 58
46 47 46 45 48 48 49 45 43 43 36 33 36 38 37 37 40 43 35 30 28 28 28 28 28 27 26 19 19 20 39 52 39 55 50 53 57 59
44 37 34 33 32 31 26 20 20 21 27 29 34 35 39 43 39 35 29 29 30 29 28 28 26 23 21 23 16 20 32 44 54 57 56 54 48 46
40 31 28 30 28 25 23 24 25 27 33 36 39 41 40 36 33 32 28 26 28 28 25 23 20 20 23 30 35 31 31 51 59 60 54 47 42 38
32 25 27 29 29 29 31 33 34 34 35 37 37 34 31 27 27 25 23 23 24 24 23 18 15 14 18 26 51 44 37 48 41 46 54 49 45 39
28 25 28 32 33 34 34 30 29 30 29 27 25 24 23 22 20 20 21 23 24 25 31 34 29 22 29 52 53 46 48 50 36 33 35 34 43 31
27 27 28 30 30 29 29 30 27 24 22 25 23 19 19 18 17 19 21 24 31 44 43 41 35 28 30 39 40 40 44 47 44 43 42 34 28 23
Wind_Direction_850mb
235 232 227 233 233 249 265 291 295 268 279 274 256 260 257 249 234 248 254 251 252 261 258 253 256 261 257 256 254 250 238 238 240 242 238 246 259 271
242 241 250 248 250 246 242 259 273 276 276 274 277 271 273 258 241 251 255 245 245 255 252 251 254 259 261 259 258 254 247 240 245 242 238 249 260 271
253 250 252 255 255 258 256 258 265 277 273 274 266 262 270 265 258 266 253 242 244 249 254 253 260 262 262 261 261 259 252 245 247 249 237 245 260 273
256 260 258 258 261 258 257 261 268 277 272 271 273 277 284 253 269 281 257 245 252 253 258 256 262 267 263 263 260 258 254 249 249 252 239 242 261 270
266 266 266 260 260 260 261 264 259 266 275 273 276 279 274 262 271 280 272 256 263 259 259 258 261 262 260 265 262 258 256 251 250 246 238 247 258 265
267 267 266 259 263 262 260 258 262 267 271 275 277 282 274 261 261 272 274 265 258 262 267 262 266 264 262 262 262 259 257 253 250 246 243 243 250 260
264 261 262 260 260 263 257 257 261 265 267 269 270 273 276 266 268 277 269 268 263 262 264 258 263 269 267 268 268 259 254 251 250 251 253 249 249 249
263 261 264 264 261 262 260 263 264 265 264 264 262 266 271 272 272 270 269 266 266 270 275 268 271 264 266 265 269 263 256 248 244 246 250 249 243 239
267 269 269 268 267 267 266 266 264 263 259 264 267 267 270 269 272 271 269 272 274 280 277 275 272 265 267 268 267 268 258 247 245 245 249 245 237 229
265 270 273 275 270 268 268 263 260 259 260 263 263 267 268 271 274 273 271 271 269 271 271 269 273 271 271 273 268 262 258 250 248 249 247 233 222 219
265 266 269 272 274 273 273 271 266 260 258 261 263 264 265 264 264 266 268 270 268 269 273 275 275 274 273 269 266 270 253 249 249 247 238 219 219 215
267 267 268 272 277 278 276 273 272 274 269 263 262 263 264 263 260 260 262 266 268 272 276 274 279 275 268 262 234 255 258 251 256 248 239 223 213 229
268 267 271 274 280 283 276 273 275 277 276 271 270 267 259 256 259 258 259 262 265 268 275 280 278 273 271 249 263 257 243 239 242 225 217 220 225 218
275 271 266 273 283 285 283 278 275 275 277 277 271 271 273 266 259 260 258 256 258 265 272 271 271 276 269 261 262 246 229 228 222 214 203 208 202 216
267 271 273 279 277 280 282 282 282 279 274 273 275 276 277 274 266 266 268 265 260 261 256 260 268 274 272 270 259 234 214 208 210 200 193 199 209 192
274 272 274 276 274 277 279 277 279 278 269 262 272 276 279 282 282 286 287 281 276 268 263 275 273 261 261 268 265 255 226 195 191 196 198 206 198 182
280 277 279 280 279 278 277 275 271 267 260 253 261 266 273 277 281 285 286 276 270 266 265 258 257 252 251 252 253 244 220 200 192 195 201 191 183 182
294 288 287 288 288 286 282 278 266 256 247 240 258 269 272 276 279 284 274 262 257 254 253 257 249 236 230 209 215 224 202 197 194 191 186 180 181 184
303 288 290 300 299 299 296 294 275 253 243 258 263 266 275 282 280 273 256 251 246 242 243 234 231 224 225 192 187 177 189 184 171 172 174 177 179 183
306 285 285 293 291 289 283 276 269 263 260 264 267 270 272 269 266 262 246 248 239 231 217 206 209 218 226 195 165 164 166 166 168 167 168 174 172 179
304 284 290 287 284 282 280 279 275 272 269 267 265 264 261 259 253 240 232 238 226 205 188 172 165 174 192 179 144 146 160 174 170 168 164 169 176 187
300 288 288 283 281 280 279 277 275 277 272 268 263 257 250 241 233 229 217 207 191 173 151 133 120 129 149 157 149 151 158 166 169 176 181 187 188 198
302 294 287 284 282 281 282 279 274 270 266 272 263 244 232 224 204 192 188 178 163 147 137 128 123 129 145 157 152 151 157 166 175 181 187 195 189 204